Погода в Коптевке

Россия / Ульяновская область     53°10′36″N   47°56′59″E
темп.,
°C
ветер,
м/с
пор.,
м/с
влажн.,
%
обл.,
%
осадки,
мм/ч
давл.,
гПа
погр.,
м
9 мая, вс
вс901:00+13ю2277100 0.0 101221
04:00+12юв227426 0.0 101212
07:00+13юв2672100 0.0 1012163
10:00+17ююв51159100 0.0 1012679
13:00+20ююв61056100 0.0 10111080
16:00+22ююв6124679 0.0 10112360
19:00+19ю3857100 0.0 1011223
22:00+16вюв2262100 0.0 101212
10 мая, пн
пн1001:00+15вюв3864100 0.0 1012182
04:00+14в2266100 0.0 101321
07:00+15в31069100 0.0 1014290
10:00+20юв5851100 0.0 1015707
13:00+24юв693794 0.0 10161942
16:00+24вюв6840100 0.0 10162726
19:00+21всв51053100 0.0 1017267
22:00+17всв51258100 0.0 1019252
11 мая, вт
вт1101:00+16всв41159100 0.0 1019273
04:00+16всв61456100 0.0 1020359
07:00+16всв61463100 0.0 1021419
10:00+20вюв7105277 0.0 10231041
13:00+22юв694915 0.0 10231842
16:00+21ююз555859 0.1 1024686
19:00+18юз227176 0.7 1025363
22:00+15ссз1188100 2.7 102623
12 мая, ср
ср1201:00+14св119397 1.2 102617
04:00+14в119588 2.4 102611
07:00+15в2292100 0.0 102671
10:00+16в5118272 0.0 1026513
13:00+21вюв7104625 0.0 10261313
16:00+22вюв684261 0.0 10261763
19:00+19вюв5105897 0.0 1026316
22:00+15в386518 0.0 1026137
13 мая, чт
чт1301:00+14в386410 0.0 1026131
04:00+14в3116271 0.0 1025225
07:00+15в511645 0.0 1026313
10:00+20вюв694965 0.0 1025613
13:00+23вюв78405 0.0 10251242
16:00+25юв67388 0.0 10241532
19:00+22вюв485496 0.0 1024213
22:00+18вюв336298 0.0 102431